DW9447 Weather Reports


time (UTC)temp
C
wind
direction
speed
KPH
gust
KPH
rain 1hr
cm
rain 24hr
cm
rain mn
cm
humidity
%
barometer
mb
20211017144933 13 55 3.2 11.3 0.00 0.00 0.00 56 1025.4
20211017144432 13 64 4.8 11.3 0.00 0.00 0.00 58 1025.4
20211017143920 12 43 6.4 12.9 0.00 0.00 0.00 59 1025.4
20211017143414 12 81 6.4 12.9 0.00 0.00 0.00 64 1025.4
20211017142910 10 52 4.8 12.9 0.00 0.00 0.00 73 1025.3
20211017142357 10 55 3.2 9.7 0.00 0.00 0.00 76 1025.3
20211017141852 9 70 4.8 11.3 0.00 0.00 0.00 78 1025.3
20211017141348 9 32 3.2 11.3 0.00 0.00 0.00 80 1025.3
20211017140833 8 83 1.6 8.0 0.00 0.00 0.00 81 1025.3
20211017140331 8 46 1.6 4.8 0.00 0.00 0.00 82 1025.2
20211017135828 8 42 0.0 4.8 0.00 0.00 0.00 82 1025.2
20211017135315 8 41 0.0 6.4 0.00 0.00 0.00 83 1025.2
20211017134807 7 49 1.6 6.4 0.00 0.00 0.00 83 1025.2
20211017134304 7 49 1.6 6.4 0.00 0.00 0.00 83 1025.2
20211017133753 7 51 0.0 6.4 0.00 0.00 0.00 83 1025.1
20211017133247 7 51 0.0 3.2 0.00 0.00 0.00 83 1025.2
20211017132743 7 51 0.0 8.0 0.00 0.00 0.00 83 1025.1
20211017132230 6 57 1.6 8.0 0.00 0.00 0.00 83 1025.2
20211017131724 6 345 1.6 4.8 0.00 0.00 0.00 83 1025.1
20211017131218 6 344 0.0 4.8 0.00 0.00 0.00 83 1025.1
20211017130712 6 332 0.0 3.2 0.00 0.00 0.00 83 1025.1
20211017130207 6 331 0.0 1.6 0.00 0.00 0.00 83 1025.1
20211017125701 6 331 0.0 1.6 0.00 0.00 0.00 83 1025.1
20211017125151 6 331 0.0 0.0 0.00 0.00 0.00 83 1024.9
20211017124644 5 331 0.0 1.6 0.00 0.00 0.00 83 1025.0
20211017124139 5 331 0.0 3.2 0.00 0.00 0.00 83 1024.9
20211017123628 5 331 0.0 3.2 0.00 0.00 0.00 83 1024.9
20211017123121 5 330 0.0 3.2 0.00 0.00 0.00 83 1024.8
20211017122617 5 330 0.0 3.2 0.00 0.00 0.00 83 1024.8
20211017122113 5 330 0.0 3.2 0.00 0.00 0.00 83 1024.7
20211017121601 5 330 0.0 4.8 0.00 0.00 0.00 83 1024.7
20211017121101 5 330 0.0 4.8 0.00 0.00 0.00 82 1024.7
20211017120554 5 330 0.0 3.2 0.00 0.00 0.00 82 1024.6
20211017120052 5 330 0.0 3.2 0.00 0.00 0.00 82 1024.5
20211017115554 5 330 0.0 3.2 0.00 0.00 0.00 82 1024.5
20211017115048 5 330 0.0 1.6 0.00 0.00 0.00 82 1024.5
20211017114550 5 330 0.0 1.6 0.00 0.00 0.00 82 1024.5
20211017114045 5 330 0.0 1.6 0.00 0.00 0.00 82 1024.5
20211017113545 5 330 0.0 0.0 0.00 0.00 0.00 82 1024.5
20211017113041 5 330 0.0 0.0 0.00 0.00 0.00 82 1024.5
20211017112541 5 330 0.0 0.0 0.00 0.00 0.00 82 1024.5
20211017112045 5 330 0.0 0.0 0.00 0.00 0.00 82 1024.5
20211017111538 5 330 0.0 0.0 0.00 0.00 0.00 82 1024.5
20211017111036 5 330 0.0 0.0 0.00 0.00 0.00 82 1024.4
20211017110540 5 330 0.0 0.0 0.00 0.00 0.00 82 1024.4
20211017110036 5 330 0.0 0.0 0.00 0.00 0.00 82 1024.3
20211017105535 5 330 0.0 0.0 0.00 0.00 0.00 82 1024.3
20211017105035 5 330 0.0 0.0 0.00 0.00 0.00 82 1024.4
20211017104529 5 330 0.0 0.0 0.00 0.00 0.00 82 1024.4
20211017104024 5 330 0.0 0.0 0.00 0.00 0.00 82 1024.4
20211017103525 5 330 0.0 0.0 0.00 0.00 0.00 82 1024.3
20211017103031 6 330 0.0 0.0 0.00 0.00 0.00 82 1024.2
20211017102526 6 330 0.0 0.0 0.00 0.00 0.00 82 1024.2
20211017102025 6 330 0.0 0.0 0.00 0.00 0.00 82 1024.2
20211017101523 6 330 0.0 0.0 0.00 0.00 0.00 82 1024.2
20211017101025 6 330 0.0 0.0 0.00 0.00 0.00 82 1024.1
20211017100520 6 330 0.0 0.0 0.00 0.00 0.00 82 1024.1
20211017100018 6 330 0.0 0.0 0.00 0.00 0.00 82 1024.1
20211017095517 6 330 0.0 0.0 0.00 0.00 0.00 82 1024.1
20211017095016 6 330 0.0 0.0 0.00 0.00 0.00 82 1024.1
20211017094517 6 330 0.0 0.0 0.00 0.00 0.00 82 1024.1
20211017094016 6 330 0.0 3.2 0.00 0.00 0.00 82 1024.1
20211017093512 6 330 0.0 3.2 0.00 0.00 0.00 82 1024.1
20211017093013 6 330 0.0 3.2 0.00 0.00 0.00 82 1024.0
20211017092513 6 330 0.0 1.6 0.00 0.00 0.00 82 1024.0
20211017092013 6 330 0.0 1.6 0.00 0.00 0.00 82 1024.0
20211017091509 6 330 0.0 0.0 0.00 0.00 0.00 82 1023.9
20211017091009 6 330 0.0 0.0 0.00 0.00 0.00 82 1024.0
20211017090513 6 330 0.0 0.0 0.00 0.00 0.00 82 1024.0
20211017090010 6 330 0.0 0.0 0.00 0.00 0.00 82 1024.0
20211017085510 6 330 0.0 0.0 0.00 0.00 0.00 82 1024.0
20211017085007 6 330 0.0 0.0 0.00 0.00 0.00 83 1024.0
20211017084515 6 330 0.0 0.0 0.00 0.00 0.00 83 1024.0
20211017084009 6 330 0.0 0.0 0.00 0.00 0.00 83 1024.0
20211017083508 6 330 0.0 0.0 0.00 0.00 0.00 83 1023.9
20211017083006 6 330 0.0 0.0 0.00 0.00 0.00 83 1023.8
20211017082520 6 330 0.0 0.0 0.00 0.00 0.00 83 1023.9
20211017082014 6 330 0.0 0.0 0.00 0.00 0.00 83 1023.8
20211017081504 6 330 0.0 0.0 0.00 0.00 0.00 83 1023.8
20211017081007 6 330 0.0 0.0 0.00 0.00 0.00 82 1023.8
20211017080503 6 330 0.0 0.0 0.00 0.00 0.00 82 1023.8
20211017080006 6 330 0.0 0.0 0.00 0.00 0.00 82 1023.7
20211017075503 6 330 0.0 0.0 0.00 0.00 0.00 82 1023.7
20211017075006 6 330 0.0 0.0 0.00 0.00 0.00 82 1023.7
20211017074503 6 330 0.0 0.0 0.00 0.00 0.00 82 1023.7
20211017074002 6 330 0.0 0.0 0.00 0.00 0.00 82 1023.7
20211017073503 6 330 0.0 0.0 0.00 0.03 0.00 82 1023.7
20211017073004 6 330 0.0 0.0 0.00 0.03 0.00 82 1023.7
20211017072501 6 330 0.0 0.0 0.00 0.03 0.00 82 1023.7
20211017072003 7 330 0.0 0.0 0.00 0.03 0.00 82 1023.7
20211017071501 7 330 0.0 0.0 0.00 0.03 0.00 82 1023.7
20211017071006 7 330 0.0 0.0 0.00 0.03 0.00 82 1023.7
20211017070503 7 330 0.0 0.0 0.00 0.03 0.00 82 1023.7
20211017070004 7 330 0.0 1.6 0.00 0.03 0.00 82 1023.7
20211017065004 7 330 0.0 1.6 0.00 0.03 0.00 83 1023.7
20211017064504 7 330 0.0 3.2 0.00 0.03 0.00 83 1023.7
20211017063959 7 330 0.0 3.2 0.00 0.03 0.00 83 1023.7
20211017063501 7 330 0.0 4.8 0.00 0.03 0.00 83 1023.7
20211017062956 7 330 1.6 4.8 0.00 0.03 0.00 83 1023.6
20211017062458 7 330 1.6 4.8 0.00 0.03 0.00 83 1023.6
20211017061955 7 330 0.0 4.8 0.00 0.03 0.00 83 1023.6
20211017061453 7 330 0.0 3.2 0.00 0.03 0.00 83 1023.6
20211017060955 7 330 0.0 0.0 0.00 0.03 0.00 83 1023.7
20211017060456 7 330 0.0 0.0 0.00 0.03 0.00 83 1023.6
20211017055953 7 330 0.0 0.0 0.00 0.03 0.00 83 1023.6
20211017055451 7 330 0.0 1.6 0.00 0.03 0.00 83 1023.6
20211017054956 7 330 0.0 1.6 0.00 0.03 0.00 83 1023.4
20211017054455 7 330 0.0 3.2 0.00 0.03 0.00 83 1023.4
20211017053952 7 330 0.0 4.8 0.00 0.03 0.00 83 1023.3
20211017053447 7 330 0.0 4.8 0.00 0.03 0.00 83 1023.3
20211017052948 7 329 0.0 3.2 0.00 0.03 0.00 83 1023.3
20211017052443 7 329 0.0 0.0 0.00 0.03 0.00 83 1023.3
20211017051936 7 329 0.0 0.0 0.00 0.03 0.00 83 1023.3
20211017051430 7 329 0.0 0.0 0.00 0.03 0.00 83 1023.3
20211017050927 7 329 0.0 0.0 0.00 0.03 0.00 83 1023.3
20211017050426 7 329 0.0 0.0 0.00 0.03 0.00 82 1023.3
20211017045928 7 329 0.0 0.0 0.00 0.03 0.03 83 1023.3
20211017045426 7 329 0.0 0.0 0.00 0.03 0.03 82 1023.3
20211017044927 7 329 0.0 0.0 0.00 0.03 0.03 82 1023.4
20211017044433 7 329 0.0 0.0 0.00 0.03 0.03 82 1023.4
20211017043923 7 329 0.0 0.0 0.00 0.03 0.03 82 1023.5
20211017043426 7 329 0.0 0.0 0.00 0.03 0.03 82 1023.5
20211017042920 7 329 0.0 0.0 0.00 0.05 0.03 82 1023.5
20211017042419 7 329 0.0 0.0 0.00 0.05 0.03 82 1023.4
20211017041917 7 329 0.0 0.0 0.00 0.08 0.03 82 1023.4
20211017041416 7 329 0.0 0.0 0.00 0.08 0.03 82 1023.3
20211017040918 7 329 0.0 0.0 0.00 0.08 0.03 82 1023.3
20211017040415 8 329 0.0 0.0 0.00 0.08 0.03 82 1023.3
20211017035920 8 329 0.0 0.0 0.00 0.10 0.03 82 1023.2
20211017035408 8 329 0.0 0.0 0.00 0.10 0.03 82 1023.2
20211017034904 8 329 0.0 0.0 0.00 0.13 0.03 82 1023.2
20211017034358 8 329 0.0 0.0 0.00 0.15 0.03 82 1023.3
20211017033847 8 329 0.0 0.0 0.00 0.23 0.03 82 1023.2
20211017033344 8 329 0.0 0.0 0.00 0.36 0.03 82 1023.2
20211017032836 8 329 0.0 0.0 0.00 0.53 0.03 82 1023.2
20211017032324 8 329 0.0 0.0 0.00 0.81 0.03 82 1023.2
20211017031820 8 329 0.0 0.0 0.00 1.14 0.03 82 1023.2
20211017031315 8 329 0.0 1.6 0.00 1.47 0.03 82 1023.2
20211017030800 8 329 0.0 1.6 0.00 1.52 0.03 82 1023.1
20211017030258 8 329 0.0 0.0 0.00 1.57 0.03 81 1023.1
20211017025755 8 329 0.0 0.0 0.00 1.60 0.03 81 1023.1
20211017025241 8 329 0.0 3.2 0.00 1.60 0.03 81 1023.1
20211017024735 8 329 0.0 3.2 0.00 1.60 0.03 81 1023.1
20211017024231 8 329 0.0 0.0 0.00 1.60 0.03 81 1023.1
20211017023719 8 329 0.0 0.0 0.00 1.60 0.03 81 1023.0
20211017023213 8 329 0.0 0.0 0.00 1.60 0.03 81 1023.0
20211017022708 8 329 0.0 0.0 0.00 1.60 0.03 80 1023.0
20211017022158 8 329 0.0 0.0 0.00 1.60 0.03 80 1023.0
20211017021653 8 329 0.0 0.0 0.00 1.60 0.03 80 1023.0
20211017021146 8 329 0.0 0.0 0.00 1.60 0.03 80 1022.9
20211017020636 9 329 0.0 0.0 0.00 1.60 0.03 80 1022.8
20211017020130 9 329 0.0 0.0 0.00 1.60 0.03 79 1022.8
20211017015624 9 329 0.0 0.0 0.00 1.60 0.03 79 1022.8
20211017015112 9 329 0.0 0.0 0.00 1.60 0.03 79 1022.7
20211017014608 9 329 0.0 0.0 0.00 1.60 0.03 78 1022.7
20211017014103 9 329 0.0 0.0 0.00 1.60 0.03 78 1022.7
20211017013551 9 329 0.0 0.0 0.00 1.60 0.03 77 1022.6
20211017013046 10 329 0.0 0.0 0.00 1.60 0.03 77 1022.5
20211017012539 10 329 0.0 0.0 0.00 1.60 0.03 77 1022.5
20211017012034 10 329 0.0 0.0 0.00 1.60 0.03 76 1022.4
20211017011526 10 329 0.0 0.0 0.00 1.60 0.03 76 1022.4
20211017011018 10 329 0.0 0.0 0.00 1.60 0.03 76 1022.3
20211017010507 10 329 0.0 0.0 0.00 1.60 0.03 75 1022.3
20211017010000 10 329 0.0 0.0 0.00 1.60 0.03 75 1022.2
20211017005455 10 329 0.0 0.0 0.00 1.60 0.03 75 1022.1
20211017004954 10 329 0.0 0.0 0.00 1.60 0.03 74 1022.1
20211017004451 10 329 0.0 0.0 0.00 1.60 0.03 74 1022.1
20211017003947 10 329 0.0 0.0 0.00 1.60 0.03 73 1022.1
20211017003445 11 329 0.0 0.0 0.00 1.60 0.03 73 1022.0
20211017002943 11 329 0.0 0.0 0.00 1.60 0.03 72 1022.1
20211017002445 11 329 0.0 0.0 0.00 1.60 0.03 72 1022.1
20211017001939 11 329 0.0 0.0 0.00 1.60 0.03 71 1022.1
20211017001440 11 329 0.0 0.0 0.00 1.60 0.03 70 1022.1
20211017000939 11 329 0.0 0.0 0.00 1.60 0.03 69 1022.0
20211017000437 11 329 0.0 0.0 0.00 1.60 0.03 68 1021.9
20211016235935 12 329 0.0 0.0 0.00 1.63 0.03 67 1021.8
20211016235432 12 329 0.0 0.0 0.00 1.63 0.03 66 1021.8
20211016234931 12 329 0.0 0.0 0.00 1.63 0.03 64 1021.8
20211016234433 12 329 0.0 0.0 0.00 1.65 0.03 63 1021.7
20211016233933 13 329 0.0 3.2 0.00 1.65 0.03 62 1021.7
20211016233434 13 329 0.0 3.2 0.00 1.65 0.03 61 1021.7
20211016232929 13 329 0.0 0.0 0.00 1.65 0.03 60 1021.7
20211016232424 14 329 0.0 0.0 0.00 1.65 0.03 57 1021.6
20211016231922 14 329 0.0 1.6 0.00 1.65 0.03 56 1021.6
20211016231426 15 329 0.0 6.4 0.00 1.65 0.03 54 1021.6
20211016230923 15 329 0.0 6.4 0.00 1.65 0.03 52 1021.6
20211016230417 15 333 1.6 4.8 0.00 1.65 0.03 50 1021.5
20211016225917 15 333 1.6 4.8 0.00 1.68 0.03 49 1021.5
20211016225419 16 333 1.6 4.8 0.00 1.68 0.03 48 1021.5
20211016224919 16 343 1.6 4.8 0.00 1.70 0.03 46 1021.5
20211016224417 16 323 1.6 11.3 0.00 1.70 0.03 46 1021.4
20211016223917 16 325 3.2 11.3 0.00 1.70 0.03 44 1021.5
20211016223414 16 335 4.8 9.7 0.00 1.70 0.03 43 1021.5
20211016222915 16 328 4.8 14.5 0.00 1.70 0.03 43 1021.5
20211016222418 16 334 4.8 14.5 0.00 1.73 0.03 43 1021.5
20211016221914 16 342 4.8 12.9 0.00 1.73 0.03 43 1021.5
20211016221415 16 304 6.4 14.5 0.00 1.73 0.03 43 1021.4
20211016220916 17 329 6.4 19.3 0.00 1.73 0.03 42 1021.4
20211016220417 17 335 6.4 19.3 0.00 1.73 0.03 41 1021.4
20211016215922 17 321 4.8 14.5 0.00 1.73 0.03 42 1021.4
20211016215415 17 325 4.8 16.1 0.00 1.73 0.03 42 1021.4
20211016214923 17 341 4.8 16.1 0.00 1.73 0.03 41 1021.4
20211016214422 17 326 4.8 16.1 0.00 1.73 0.03 40 1021.5
20211016213920 17 15 6.4 16.1 0.00 1.73 0.03 41 1021.4
20211016213424 17 323 6.4 16.1 0.00 1.73 0.03 40 1021.4
20211016212924 17 293 8.0 19.3 0.00 1.73 0.03 41 1021.3
20211016212417 17 358 8.0 19.3 0.00 1.73 0.03 39 1021.3
20211016211919 17 337 9.7 19.3 0.00 1.73 0.03 39 1021.3
20211016211418 17 25 9.7 17.7 0.00 1.73 0.03 38 1021.3
20211016210916 17 318 11.3 19.3 0.00 1.73 0.03 38 1021.3
20211016210410 17 338 9.7 19.3 0.00 1.73 0.03 37 1021.3
20211016205913 17 333 6.4 19.3 0.00 1.73 0.03 39 1021.3
20211016205412 17 345 8.0 19.3 0.00 1.73 0.03 39 1021.3
20211016204912 17 337 8.0 19.3 0.00 1.73 0.03 38 1021.3
20211016204411 17 339 8.0 19.3 0.00 1.78 0.03 38 1021.2
20211016203919 18 353 9.7 19.3 0.00 1.88 0.03 37 1021.3
20211016203419 18 0 8.0 17.7 0.00 1.91 0.03 38 1021.3
20211016202920 18 319 6.4 16.1 0.00 1.93 0.03 40 1021.2
20211016202410 17 349 6.4 17.7 0.00 1.96 0.03 38 1021.2
20211016201916 18 6 8.0 20.9 0.00 1.96 0.03 37 1021.3
20211016201413 18 18 11.3 25.7 0.00 1.96 0.03 36 1021.2
20211016200917 17 20 12.9 25.7 0.00 1.96 0.03 36 1021.0
20211016200406 17 321 11.3 24.1 0.00 2.06 0.03 36 1020.9
20211016195906 17 328 9.7 24.1 0.00 2.08 0.03 36 1020.9
20211016195405 17 354 9.7 20.9 0.00 2.11 0.03 35 1021.2
20211016194906 17 294 11.3 22.5 0.00 2.36 0.03 36 1021.0
20211016194406 18 345 9.7 22.5 0.00 2.36 0.03 37 1021.2
20211016193905 18 4 8.0 20.9 0.00 2.36 0.03 36 1021.0
20211016193412 18 4 8.0 17.7 0.00 2.36 0.03 39 1021.0
20211016192907 18 352 8.0 24.1 0.00 2.36 0.03 39 1021.0
20211016192405 18 321 8.0 24.1 0.00 2.36 0.03 39 1021.0
20211016191910 18 3 8.0 20.9 0.00 2.36 0.03 40 1020.9
20211016191408 18 7 6.4 20.9 0.00 2.36 0.03 40 1020.9
20211016190904 17 11 6.4 16.1 0.00 2.36 0.03 42 1020.8
20211016190405 17 1 6.4 16.1 0.00 2.36 0.03 41 1020.9
20211016185906 17 64 9.7 20.9 0.00 2.36 0.03 40 1020.9
20211016185405 17 4 11.3 22.5 0.00 2.36 0.03 38 1021.0
20211016184857 17 38 11.3 27.4 0.00 2.36 0.03 37 1021.2
20211016184356 17 37 11.3 27.4 0.00 2.36 0.03 40 1021.2
20211016183856 17 98 9.7 27.4 0.00 2.36 0.03 38 1021.0
20211016183356 17 1 9.7 24.1 0.00 2.36 0.03 39 1021.2
20211016182856 17 342 9.7 20.9 0.00 2.36 0.03 38 1021.3
20211016182356 17 343 8.0 20.9 0.00 2.36 0.03 40 1021.5
20211016181857 17 4 8.0 24.1 0.00 2.36 0.03 41 1021.5
20211016181356 17 39 9.7 24.1 0.00 2.36 0.03 40 1021.6
20211016180854 17 45 9.7 19.3 0.00 2.36 0.03 41 1021.7
20211016180347 17 40 8.0 19.3 0.00 2.36 0.03 41 1021.7
20211016175841 17 47 8.0 19.3 0.00 2.36 0.03 41 1021.9
20211016175343 17 41 9.7 27.4 0.00 2.36 0.03 41 1021.9
20211016174844 17 38 9.7 27.4 0.00 2.36 0.03 41 1021.9
20211016174340 17 19 11.3 19.3 0.00 2.36 0.03 40 1021.9
20211016173844 17 87 12.9 27.4 0.00 2.36 0.03 38 1022.1
20211016173345 17 1 9.7 27.4 0.00 2.36 0.03 39 1022.2
20211016172844 17 70 8.0 20.9 0.00 2.36 0.03 40 1022.2
20211016172342 16 53 9.7 20.9 0.00 2.36 0.03 41 1022.2
20211016171838 17 12 11.3 20.9 0.00 2.36 0.03 41 1022.2
20211016171339 17 333 11.3 22.5 0.00 2.36 0.03 40 1022.3
20211016170838 17 345 11.3 24.1 0.00 2.36 0.03 40 1022.3
20211016170339 16 359 9.7 24.1 0.00 2.36 0.03 41 1022.3
20211016165838 16 346 11.3 24.1 0.00 2.36 0.03 40 1022.4
20211016165342 16 307 11.3 24.1 0.00 2.36 0.03 41 1022.4
20211016164836 17 1 8.0 19.3 0.00 2.36 0.03 42 1022.4
20211016164329 16 358 9.7 24.1 0.00 2.36 0.03 42 1022.6
20211016163818 17 52 9.7 24.1 0.00 2.36 0.03 44 1022.6
20211016163316 16 3 9.7 19.3 0.00 2.36 0.03 44 1022.6
20211016162807 16 31 9.7 22.5 0.00 2.36 0.03 44 1022.6
20211016162258 16 352 11.3 22.5 0.00 2.36 0.03 43 1022.8
20211016161756 16 6 12.9 22.5 0.00 2.36 0.03 41 1022.6
20211016161251 16 3 9.7 20.9 0.00 2.36 0.03 43 1022.7
20211016160751 16 342 9.7 24.1 0.00 2.36 0.03 44 1022.7
20211016160251 16 32 11.3 24.1 0.00 2.36 0.03 46 1022.7
20211016155755 16 29 9.7 22.5 0.00 2.36 0.03 44 1022.6
20211016155250 16 350 8.0 22.5 0.00 2.36 0.03 46 1022.6
20211016154753 16 37 9.7 19.3 0.00 2.36 0.03 47 1022.6
20211016154253 16 30 9.7 24.1 0.00 2.36 0.03 48 1022.6
20211016153754 16 50 8.0 24.1 0.00 2.36 0.03 48 1022.6
20211016153252 16 324 6.4 17.7 0.00 2.36 0.03 52 1022.6
20211016152752 15 358 8.0 17.7 0.00 2.36 0.03 53 1022.6
20211016152250 15 55 8.0 17.7 0.00 2.36 0.03 53 1022.5
20211016151746 15 0 8.0 22.5 0.00 2.36 0.03 55 1022.6
20211016151250 15 53 8.0 22.5 0.00 2.36 0.03 55 1022.5
20211016150748 15 40 6.4 20.9 0.00 2.36 0.03 56 1022.4
20211016150243 15 359 8.0 17.7 0.00 2.36 0.03 58 1022.4
20211016145741 14 1 9.7 17.7 0.00 2.36 0.03 58 1022.3
20211016145240 14 353 6.4 17.7 0.00 2.36 0.03 59 1022.4